Location: Unspecified
(0.0000°N, 0.0000°E)
Time: 23:43:38
(UTC+00:00)

deb Explorer IX - Pass Details

Date: 15 December 2018
Orbit: 538 x 1115 km, 38.8° (Epoch: 17 January)

Event Time Altitude Azimuth Distance (km) Brightness Sun altitude
Rises 01:22:48 0° 336° (NNW) 3,036 - -58.4°
Reaches altitude 10° 01:25:29 10° 351° (N) 2,219 - -58.0°
Maximum altitude 01:29:36 23° 43° (NE) 1,647 - -57.3°
Drops below altitude 10° 01:34:14 10° 94° (E) 2,543 - -56.5°
Exits shadow 01:37:17 - 107° (ESE) 3,509 ? -56.0°
Sets 01:37:33 0° 107° (ESE) 3,599 ? -55.9°
